Location: Mahannah Oil Field
(37.4664°N, 96.6003°W)
Time: 10:22:52
(UTC+00:00)

Vanguard 2 - Pass Details

Date: 30 January 2021
Orbit: 552 x 2938 km, 32.9° (Epoch: 08 March)

Event Time Altitude Azimuth Distance (km) Brightness Sun altitude
Rises 02:19:25 0° 261° (W) 2,856 11.6 -30.2°
Reaches altitude 10° 02:22:14 10° 238° (WSW) 2,124 10.4 -30.8°
Maximum altitude 02:25:14 16° 200° (SSW) 1,963 9.7 -31.4°
Enters shadow 02:25:58 16° 190° (S) 2,044 9.7 -31.5°
